Wind_Speed
9 8 7 9 10 11 12 11 12 15 16 17 18 20 20 21 21 21 21 22 22 23 25 27 30 32 34 37 38 39 40 40 40 40 39 37 36 35 33 31 29 26 26 28
4 5 8 8 8 9 9 8 10 13 13 14 16 17 19 19 19 20 20 21 23 25 27 29 32 33 35 36 38 38 38 38 38 37 36 36 35 34 33 31 29 26 26 27
3 6 7 6 6 6 6 7 9 11 12 12 12 13 15 16 17 19 20 22 24 26 28 29 32 32 33 35 35 36 36 36 36 36 36 36 36 34 32 31 29 27 26 27
5 6 6 5 6 6 6 8 7 8 8 10 9 10 14 13 15 17 18 19 21 23 26 29 30 31 32 33 34 34 35 35 36 37 37 37 36 35 34 33 32 30 30 29
6 7 6 6 7 6 6 6 6 7 7 8 9 8 15 13 14 16 18 20 21 23 25 27 29 30 31 32 33 34 35 36 37 38 38 39 38 38 38 37 36 34 34 34
5 5 5 5 5 5 5 5 6 7 7 8 10 8 15 14 16 18 19 20 21 23 26 28 29 31 32 34 35 37 38 39 39 40 41 41 41 41 41 40 40 39 38 37
5 5 4 4 5 5 6 5 6 8 8 10 12 11 15 15 17 19 20 22 23 25 27 29 31 32 34 36 37 38 40 41 42 43 44 44 44 44 44 43 43 43 42 42
4 6 6 5 5 6 6 5 6 7 8 11 13 13 15 16 18 19 21 23 25 27 29 31 32 33 35 37 39 40 41 43 44 45 45 46 45 45 46 46 46 46 46 46
4 6 6 6 6 6 6 6 7 8 9 9 12 15 15 17 19 21 22 24 26 28 30 32 33 35 37 39 41 42 43 44 45 45 46 46 46 46 47 47 47 48 48 49
4 5 6 6 6 5 6 7 8 8 9 9 13 17 17 18 20 22 24 26 28 30 32 33 35 37 39 41 42 43 44 45 45 46 47 47 47 48 48 48 49 49 50 50
4 5 6 6 6 7 7 8 8 9 10 11 13 18 18 20 21 23 26 28 30 31 33 35 38 40 42 43 44 44 45 46 47 47 47 48 48 49 49 49 49 50 51 51
5 5 6 7 7 8 8 10 10 11 13 13 15 20 19 21 23 26 28 30 32 33 36 38 40 42 44 45 45 46 47 47 47 48 48 48 49 49 50 50 51 52 53 53
5 5 7 9 10 10 11 11 11 12 14 15 16 21 21 23 25 28 30 32 34 36 38 41 43 45 46 46 47 47 47 48 48 49 49 50 50 50 51 51 52 52 53 54
6 6 6 7 10 12 12 13 13 14 15 17 18 21 23 25 27 30 32 34 36 39 41 43 45 46 46 47 48 48 48 49 50 50 51 51 51 51 51 52 52 52 52 52
6 7 7 9 11 12 13 15 15 16 17 18 20 22 24 27 29 32 34 36 38 41 43 45 46 47 47 48 48 48 48 50 51 51 51 51 50 51 51 52 52 51 51 51
6 7 9 10 12 14 15 16 16 17 19 20 21 23 25 28 31 34 36 38 41 43 45 46 47 48 48 48 48 48 49 51 51 51 50 51 51 51 51 51 50 50 49 49
7 9 10 12 14 16 16 16 18 19 21 22 23 25 27 30 33 35 38 41 43 45 47 47 48 48 48 48 49 49 50 51 51 50 50 50 51 50 49 49 48 47 46 46
9 11 12 14 16 17 17 18 18 19 21 23 24 26 28 31 34 37 40 43 45 47 48 48 48 48 48 49 50 50 51 51 50 50 50 50 50 49 47 46 45 44 43 43
12 13 14 15 17 19 18 18 20 20 21 23 25 27 29 32 35 39 42 45 48 49 49 49 49 49 49 50 50 51 51 50 50 50 50 50 49 48 46 44 41 40 39 39
13 14 16 17 18 20 20 20 21 22 22 24 26 29 32 34 37 40 43 46 48 49 49 48 48 48 49 50 50 50 50 50 50 50 49 49 47 45 43 40 38 36 35 34
14 15 16 18 19 21 21 22 22 24 25 26 28 31 34 37 40 43 45 47 49 49 49 48 48 48 49 49 50 49 49 50 49 49 49 48 46 44 41 37 34 32 30 29
16 17 17 18 20 22 22 22 23 24 25 27 30 32 35 38 42 45 47 49 50 49 49 48 47 47 48 49 49 49 49 49 49 48 47 46 44 41 37 33 30 28 25 24
16 18 19 19 21 22 22 23 23 24 26 28 30 33 36 39 43 46 48 49 50 49 49 48 47 47 48 49 49 49 49 49 48 47 45 44 42 39 35 31 27 23 20 19
18 19 20 20 21 22 22 23 24 25 26 29 32 34 37 41 44 47 49 50 50 49 49 48 47 47 48 48 48 49 48 48 48 46 44 42 40 37 32 28 24 19 15 14
20 20 21 21 22 22 23 23 24 25 27 30 33 36 39 42 46 48 50 51 50 49 48 48 47 47 47 47 47 47 47 47 46 45 43 40 39 35 30 26 21 17 13 11
21 21 21 22 22 22 23 24 25 27 29 32 34 37 41 44 47 49 50 51 50 49 48 47 46 46 46 46 46 46 46 45 45 44 41 39 37 33 28 23 20 17 13 9
Wind_Direction
279 274 265 263 263 261 266 266 267 271 273 273 273 274 276 276 275 274 273 272 270 269 270 271 275 278 280 283 285 285 287 289 290 290 291 291 292 294 292 292 291 286 279 270
293 277 272 275 275 275 277 279 279 281 280 279 279 277 275 275 275 276 275 274 274 274 275 277 280 282 283 286 288 289 289 289 290 290 292 293 294 295 292 291 292 287 278 269
251 265 279 284 290 293 288 278 279 286 289 287 288 289 283 279 278 279 280 280 279 279 279 282 286 287 287 288 290 291 291 291 292 292 292 293 293 294 294 292 291 288 282 274
272 276 283 286 287 292 287 283 283 291 300 297 297 294 292 289 288 289 289 289 288 286 287 288 290 292 292 292 293 294 294 293 292 293 293 292 291 290 290 290 288 286 282 276
279 277 278 276 279 287 279 290 297 300 299 297 301 292 290 294 294 296 296 295 294 294 294 294 295 296 296 296 295 296 295 294 293 293 292 291 290 289 288 286 284 281 277 271
294 284 272 279 291 295 303 304 314 318 317 298 294 293 287 295 298 301 301 300 299 300 299 297 298 299 299 298 298 297 296 295 294 293 292 291 289 287 285 283 280 277 274 269
316 305 286 287 294 295 301 313 317 314 310 287 294 293 287 296 299 301 302 302 301 302 302 301 301 301 300 300 299 298 297 296 295 293 291 290 288 286 284 281 278 275 272 268
310 304 306 304 296 296 304 300 285 285 291 294 300 296 298 300 302 303 305 305 304 303 304 305 305 304 303 302 301 300 298 296 294 293 291 290 288 285 282 280 277 274 271 267
310 302 314 317 310 300 300 297 296 298 301 304 297 304 303 305 307 308 309 309 308 308 309 309 308 307 306 305 303 301 300 298 296 294 292 290 288 285 282 279 277 274 270 267
316 315 316 322 320 314 308 309 310 311 307 307 305 310 315 313 313 312 313 313 313 313 312 311 311 309 308 306 305 303 301 299 297 295 294 292 290 287 284 281 278 275 271 268
317 321 322 324 324 321 321 321 320 318 318 315 308 304 315 315 315 316 316 316 316 316 315 314 313 312 310 309 307 306 304 303 301 299 297 295 292 290 286 283 279 276 273 270
307 317 322 325 326 326 327 328 329 326 323 320 316 311 320 318 319 319 319 319 319 318 317 316 315 314 313 312 311 310 309 307 304 301 299 297 294 291 288 285 282 278 275 272
298 312 330 328 328 329 330 333 333 328 324 322 321 315 321 320 320 320 321 322 321 320 319 318 318 317 316 315 314 312 311 308 306 303 301 299 296 293 289 286 283 280 277 273
296 306 312 307 314 324 329 331 330 328 325 323 321 319 321 323 323 323 324 324 323 322 322 321 321 320 318 317 316 315 313 310 308 305 303 301 298 295 292 288 285 281 277 273
300 307 312 315 320 324 327 329 328 326 324 323 322 322 324 325 325 326 327 326 325 325 324 323 323 322 320 319 318 317 315 313 311 308 306 303 301 298 295 291 286 281 277 273
301 309 316 321 323 323 324 326 326 326 326 325 325 325 327 328 327 328 328 328 328 327 327 325 324 323 322 321 321 320 318 316 314 311 309 306 304 301 297 293 288 282 277 272
304 311 318 320 322 321 321 324 326 326 325 326 327 328 330 330 329 329 330 330 330 329 328 327 326 325 324 324 323 322 321 319 317 315 313 310 308 305 301 296 291 285 278 272
304 311 316 317 318 320 320 322 323 325 325 327 329 330 330 332 331 331 332 332 331 330 329 328 328 327 327 326 326 325 324 323 321 319 316 313 311 308 305 299 294 287 279 273
305 310 313 315 317 317 319 321 323 325 326 327 329 330 332 333 334 333 334 334 333 332 331 331 330 330 330 329 329 328 327 326 324 322 320 318 315 311 307 303 296 289 282 274
304 308 310 314 315 316 319 322 324 325 327 330 332 334 335 335 336 336 335 334 334 333 333 333 332 332 332 332 332 331 330 329 328 326 324 322 319 316 311 306 299 292 284 274
305 307 309 311 313 313 318 321 324 327 329 332 334 336 336 336 337 337 336 335 335 335 335 335 334 334 334 335 334 334 333 332 331 330 329 327 325 321 317 311 304 296 286 275
305 307 308 309 309 310 316 318 322 324 328 331 334 335 336 336 337 337 337 336 336 336 336 336 336 336 336 336 337 337 336 336 335 334 333 332 330 328 325 319 311 301 289 279
302 304 305 307 307 309 313 316 320 324 327 330 333 334 336 336 336 337 337 337 337 337 337 337 337 337 338 338 339 339 339 339 339 339 338 337 336 334 330 324 318 309 295 282
302 303 304 305 307 309 312 316 319 323 326 329 331 333 334 335 336 337 338 338 337 338 338 339 339 339 339 340 340 341 341 341 342 343 342 342 341 339 336 333 328 319 306 288
301 303 304 305 307 309 312 315 318 322 325 328 330 331 333 334 335 337 338 338 338 339 339 340 340 340 341 342 343 344 344 344 346 346 346 347 347 347 344 342 338 332 320 302
300 302 304 305 306 308 311 314 318 321 324 326 328 330 332 334 335 337 338 339 340 340 340 341 341 342 342 343 345 346 347 348 349 350 350 351 353 354 353 352 351 346 338 320
Height
5866 5868 5869 5869 5869 5869 5869 5870 5870 5869 5868 5869 5868 5868 5867 5867 5867 5866 5866 5866 5865 5865 5864 5863 5862 5860 5858 5855 5852 5849 5846 5843 5840 5837 5833 5829 5826 5823 5820 5817 5813 5810 5808 5808
5867 5867 5866 5866 5866 5866 5867 5868 5868 5866 5865 5865 5864 5864 5863 5862 5862 5862 5861 5861 5860 5859 5858 5856 5854 5852 5849 5846 5843 5840 5837 5834 5831 5828 5824 5821 5818 5815 5812 5809 5807 5804 5802 5801
5866 5866 5864 5864 5865 5865 5865 5866 5866 5864 5863 5862 5861 5861 5859 5858 5858 5857 5856 5855 5854 5853 5851 5849 5847 5844 5841 5838 5835 5832 5828 5825 5822 5819 5816 5813 5810 5807 5805 5803 5801 5799 5797 5796
5865 5864 5864 5864 5863 5863 5864 5863 5862 5861 5860 5861 5860 5861 5856 5854 5854 5853 5851 5850 5848 5847 5845 5842 5840 5837 5833 5830 5827 5824 5820 5817 5814 5810 5807 5804 5801 5799 5797 5795 5793 5792 5790 5789
5864 5862 5862 5862 5861 5861 5861 5860 5860 5859 5858 5858 5857 5858 5855 5852 5850 5849 5847 5845 5843 5841 5838 5836 5833 5829 5826 5823 5819 5816 5812 5809 5805 5802 5798 5795 5792 5790 5788 5786 5784 5783 5782 5781
5862 5861 5860 5860 5860 5859 5859 5859 5858 5857 5857 5857 5855 5855 5852 5849 5847 5845 5843 5840 5838 5836 5833 5829 5826 5823 5819 5815 5811 5807 5803 5800 5796 5792 5788 5785 5782 5779 5777 5775 5774 5772 5772 5771
5862 5860 5859 5859 5859 5858 5858 5858 5859 5858 5857 5856 5852 5851 5849 5846 5844 5842 5839 5836 5834 5831 5827 5824 5820 5816 5812 5807 5803 5798 5794 5790 5785 5781 5777 5774 5771 5767 5765 5763 5761 5760 5759 5759
5862 5862 5859 5858 5858 5857 5857 5857 5858 5857 5856 5853 5849 5847 5845 5842 5840 5838 5835 5832 5829 5825 5821 5817 5813 5808 5803 5798 5793 5788 5784 5779 5774 5770 5766 5762 5758 5755 5752 5749 5747 5746 5745 5745
5861 5861 5858 5857 5856 5856 5855 5855 5854 5853 5852 5850 5848 5844 5841 5839 5836 5834 5830 5827 5823 5819 5815 5810 5805 5800 5795 5789 5784 5778 5773 5767 5762 5757 5752 5748 5745 5741 5737 5735 5733 5731 5729 5729
5860 5859 5858 5857 5856 5855 5854 5853 5852 5851 5849 5849 5846 5842 5839 5835 5833 5829 5825 5821 5817 5812 5807 5802 5797 5791 5785 5779 5773 5767 5761 5755 5750 5744 5739 5734 5730 5726 5722 5719 5716 5714 5713 5712
5859 5859 5858 5856 5854 5853 5852 5851 5849 5848 5846 5845 5843 5841 5835 5831 5828 5824 5820 5815 5811 5805 5800 5794 5788 5782 5775 5769 5762 5755 5749 5743 5737 5730 5725 5719 5714 5709 5705 5702 5699 5696 5694 5693
5858 5858 5856 5855 5853 5851 5850 5848 5847 5846 5843 5841 5839 5838 5831 5827 5823 5819 5814 5809 5804 5798 5792 5786 5779 5772 5765 5758 5750 5743 5736 5729 5722 5716 5710 5704 5698 5693 5688 5684 5681 5678 5675 5674
5857 5856 5855 5854 5853 5850 5847 5845 5844 5842 5840 5837 5835 5833 5826 5822 5818 5813 5808 5803 5797 5791 5784 5777 5770 5762 5754 5746 5738 5731 5724 5716 5708 5701 5695 5688 5682 5676 5670 5666 5662 5658 5656 5654
5855 5854 5854 5854 5850 5847 5845 5843 5841 5839 5836 5833 5830 5827 5822 5817 5812 5807 5801 5796 5789 5782 5775 5767 5759 5751 5743 5734 5727 5719 5711 5702 5694 5686 5679 5671 5664 5658 5652 5647 5642 5639 5636 5634
5853 5852 5851 5849 5847 5845 5842 5840 5838 5835 5832 5829 5826 5821 5817 5812 5806 5801 5795 5789 5782 5774 5766 5758 5749 5741 5732 5723 5715 5706 5698 5689 5679 5671 5663 5655 5647 5640 5633 5627 5622 5618 5616 5614
5851 5850 5849 5847 5844 5842 5840 5837 5835 5831 5828 5825 5821 5817 5812 5806 5800 5794 5788 5781 5774 5766 5757 5748 5739 5730 5721 5712 5704 5694 5685 5675 5665 5655 5646 5638 5630 5622 5614 5608 5602 5599 5596 5594
5849 5848 5846 5845 5842 5839 5837 5834 5831 5828 5824 5820 5816 5812 5806 5801 5795 5788 5781 5774 5765 5757 5748 5739 5729 5720 5711 5701 5692 5682 5672 5661 5651 5641 5631 5622 5613 5604 5596 5589 5584 5580 5576 5575
5846 5845 5843 5842 5840 5837 5836 5831 5828 5824 5820 5815 5811 5807 5801 5796 5789 5781 5774 5766 5757 5748 5739 5729 5720 5710 5700 5690 5680 5670 5659 5648 5638 5627 5617 5607 5597 5588 5580 5572 5566 5562 5558 5557
5843 5842 5840 5839 5836 5833 5831 5827 5823 5820 5816 5812 5807 5802 5796 5790 5783 5775 5767 5758 5749 5739 5730 5720 5710 5700 5690 5680 5669 5659 5647 5636 5625 5614 5603 5593 5582 5572 5564 5557 5550 5546 5542 5540
5840 5839 5837 5834 5832 5829 5827 5823 5819 5816 5811 5807 5802 5796 5790 5784 5778 5771 5761 5752 5742 5732 5722 5712 5702 5691 5681 5670 5659 5648 5637 5626 5614 5603 5591 5580 5569 5558 5550 5542 5536 5531 5527 5526
5837 5835 5833 5830 5828 5825 5822 5818 5814 5811 5807 5801 5796 5790 5784 5777 5771 5763 5754 5745 5735 5725 5714 5704 5693 5683 5672 5661 5651 5639 5628 5616 5604 5592 5580 5568 5557 5546 5537 5529 5523 5518 5515 5513
5833 5831 5829 5827 5824 5822 5817 5813 5810 5806 5801 5795 5790 5785 5779 5772 5764 5756 5747 5737 5727 5717 5707 5696 5686 5675 5664 5653 5642 5631 5619 5607 5595 5583 5571 5559 5547 5536 5527 5519 5512 5507 5504 5502
5829 5828 5825 5823 5821 5816 5812 5808 5805 5800 5795 5790 5785 5780 5773 5766 5759 5750 5741 5731 5721 5710 5700 5689 5679 5668 5657 5646 5635 5623 5612 5599 5587 5575 5563 5551 5539 5529 5519 5511 5505 5499 5496 5495
5824 5822 5819 5816 5814 5810 5807 5803 5799 5795 5790 5785 5780 5774 5768 5761 5753 5744 5734 5724 5714 5704 5693 5683 5672 5662 5651 5640 5628 5616 5605 5592 5580 5569 5557 5545 5534 5523 5514 5506 5500 5495 5491 5489
5819 5816 5814 5811 5809 5805 5802 5798 5794 5789 5785 5780 5774 5768 5762 5755 5746 5737 5728 5718 5708 5697 5687 5676 5666 5656 5645 5634 5623 5611 5599 5587 5575 5564 5552 5541 5530 5519 5510 5503 5497 5492 5489 5486
5813 5811 5809 5806 5803 5800 5796 5792 5788 5784 5779 5774 5769 5763 5756 5748 5740 5731 5721 5712 5701 5691 5681 5671 5661 5650 5640 5629 5618 5607 5595 5584 5572 5560 5549 5538 5528 5518 5509 5502 5496 5491 5487 5485